Lake Lanier Weather Center

Moon Phase Calendar



Lake Lanier Water Level
Online Cameras

 


      

Current Conditions in Gainesville
2/24/2024 3:53:39 AM

44°F
Feels Like 41
Clear
Humidity
58%
Pressure
29.8"
Wind
5.8 mph (W)
Dew Point
31°F
UV Index
0/10 (Low)
Visibility
6 mi

Hourly Forecast

Date & Time Sat, Feb 24
4:00 AM
Sat, Feb 24
5:00 AM
Sat, Feb 24
6:00 AM
Sat, Feb 24
7:00 AM
Sat, Feb 24
8:00 AM
Sat, Feb 24
9:00 AM
Sat, Feb 24
10:00 AM
Sat, Feb 24
11:00 AM
Sat, Feb 24
12:00 PM
Sat, Feb 24
1:00 PM
Sat, Feb 24
2:00 PM
Sat, Feb 24
3:00 PM
Sat, Feb 24
4:00 PM
Sat, Feb 24
5:00 PM
Sat, Feb 24
6:00 PM
Sat, Feb 24
7:00 PM
Sat, Feb 24
8:00 PM
Sat, Feb 24
9:00 PM
Sat, Feb 24
10:00 PM
Sat, Feb 24
11:00 PM
Sun, Feb 25
12:00 AM
Sun, Feb 25
1:00 AM
Sun, Feb 25
2:00 AM
Sun, Feb 25
3:00 AM
Sun, Feb 25
4:00 AM
Sun, Feb 25
5:00 AM
Sun, Feb 25
6:00 AM
Sun, Feb 25
7:00 AM
Sun, Feb 25
8:00 AM
Sun, Feb 25
9:00 AM
Sun, Feb 25
10:00 AM
Sun, Feb 25
11:00 AM
Sun, Feb 25
12:00 PM
Sun, Feb 25
1:00 PM
Sun, Feb 25
2:00 PM
Sun, Feb 25
3:00 PM
Sun, Feb 25
4:00 PM
Sun, Feb 25
5:00 PM
Sun, Feb 25
6:00 PM
Sun, Feb 25
7:00 PM
Sun, Feb 25
8:00 PM
Sun, Feb 25
9:00 PM
Sun, Feb 25
10:00 PM
Sun, Feb 25
11:00 PM
Mon, Feb 26
12:00 AM
Mon, Feb 26
1:00 AM
Mon, Feb 26
2:00 AM
Mon, Feb 26
3:00 AM
Condition
Clear

Clear

Clear

Clear

Clear

Clouds

Clouds

Clouds

Clouds

Clouds

Clouds

Clouds

Clouds

Clouds

Clouds

Clouds

Clear

Clear

Clear

Clear

Clear

Clear

Clear

Clear

Clear

Clear

Clear

Clear

Clear

Clear

Clear

Clear

Clear

Clear

Clear

Clear

Clear

Clear

Clear

Clear

Clear

Clear

Clear

Clear

Clear

Clear

Clouds

Clouds
Temperature 43°F43°F42°F42°F43°F48°F51°F54°F56°F56°F56°F56°F52°F48°F44°F41°F39°F37°F35°F33°F32°F32°F31°F30°F30°F30°F30°F30°F33°F40°F46°F51°F54°F56°F58°F59°F59°F58°F51°F46°F45°F44°F43°F43°F42°F42°F41°F41°F
Feels Like 41°F40°F39°F38°F38°F43°F49°F52°F53°F53°F54°F53°F50°F42°F38°F34°F32°F30°F29°F29°F29°F27°F26°F26°F26°F30°F30°F30°F33°F40°F46°F47°F51°F53°F55°F56°F56°F55°F48°F46°F45°F44°F43°F43°F42°F42°F41°F41°F
Cloudiness 2%2%2%7%9%46%58%52%52%49%91%79%55%42%34%29%1%1%1%1%1%1%2%3%4%4%4%3%3%2%1%1%1%1%0%0%0%2%3%3%6%6%6%6%6%5%45%62%
Visibility 6 mi6 mi6 mi6 mi6 mi6 mi6 mi6 mi6 mi6 mi6 mi6 mi6 mi6 mi6 mi6 mi6 mi6 mi6 mi6 mi6 mi6 mi6 mi6 mi6 mi6 mi6 mi6 mi6 mi6 mi6 mi6 mi6 mi6 mi6 mi6 mi6 mi6 mi6 mi6 mi6 mi6 mi6 mi6 mi6 mi6 mi6 mi6 mi
Precipitation 0%0%0%0%0%2%4%4%8%16%26%17%13%7%2%2%0%0%0%0%0%0%0%0%0%0%0%0%0%0%0%0%0%0%0%0%0%0%0%0%0%0%0%0%0%0%0%0%
Humidity 61%65%69%70%71%68%60%52%46%45%46%47%50%51%54%57%61%64%65%70%74%77%80%80%80%78%75%73%63%47%37%31%28%26%25%26%28%37%49%50%51%52%54%56%59%62%64%67%
Dew Point 31°F32°F33°F33°F35°F37°F37°F36°F35°F35°F35°F36°F34°F30°F28°F27°F26°F26°F25°F24°F25°F25°F25°F25°F24°F23°F23°F22°F22°F21°F21°F21°F21°F21°F23°F24°F26°F31°F32°F29°F27°F27°F27°F28°F29°F29°F30°F31°F
Pressure 29.8"29.8"29.83"29.83"29.85"29.85"29.88"29.85"29.85"29.85"29.85"29.85"29.91"29.94"30"30.06"30.09"30.12"30.12"30.15"30.15"30.15"30.18"30.18"30.18"30.21"30.21"30.21"30.21"30.24"30.21"30.21"30.18"30.15"30.12"30.09"30.09"30.09"30.12"30.15"30.15"30.18"30.18"30.18"30.18"30.18"30.18"30.18"
Wind Speed 4.3 mph4.8 mph5.2 mph6.9 mph8.7 mph9.7 mph12 mph11.2 mph14.4 mph16.2 mph16.3 mph16.9 mph17.2 mph15 mph12.6 mph11.2 mph10.1 mph8.9 mph6.9 mph4.6 mph3.9 mph4.6 mph4.3 mph4 mph3.5 mph2.9 mph2.8 mph1.8 mph0.8 mph0.7 mph1.8 mph2 mph2.9 mph4.2 mph4.9 mph5.3 mph6.3 mph5.3 mph3.1 mph1.5 mph2.4 mph1.5 mph1.3 mph1.4 mph1.4 mph1.9 mph2.2 mph2.3 mph
Wind
Direction
265°
W
253°
WSW
259°
W
258°
WSW
262°
W
266°
W
293°
WNW
292°
WNW
289°
WNW
292°
WNW
292°
WNW
300°
WNW
308°
NW
310°
NW
315°
NW
323°
NW
319°
NW
328°
NNW
335°
NNW
321°
NW
316°
NW
306°
NW
307°
NW
306°
NW
304°
NW
303°
WNW
309°
NW
329°
NNW
344°
NNW
81°
E
107°
ESE
151°
SSE
202°
SSW
222°
SW
226°
SW
226°
SW
231°
SW
219°
SW
213°
SSW
224°
SW
176°
S
208°
SSW
256°
WSW
280°
W
285°
WNW
289°
WNW
297°
WNW
314°
NW

Daily Forecast

Date High Low Precip. Humidity
Today
Feb 24

Clouds
56 °F
33 °F
26%
46%
Sunday
Feb 25

Clear
59 °F
30 °F
0%
28%
Monday
Feb 26

Clouds
67 °F
40 °F
0%
45%
Tuesday
Feb 27

Rain
70 °F
50 °F
23%
76%
Wednesday
Feb 28

Rain
65 °F
54 °F
100%
86%
Thursday
Feb 29

Rain
55 °F
42 °F
100%
61%
Friday
Mar 1

Rain
42 °F
38 °F
100%
93%
Saturday
Mar 2

Rain
58 °F
43 °F
80%
77%
Sunday
Mar 3

Clouds
63 °F
44 °F
0%
56%
Monday
Mar 4

Clear
64 °F
47 °F
0%
47%
Tuesday
Mar 5

Clear
67 °F
47 °F
0%
47%
Wednesday
Mar 6

Rain
59 °F
53 °F
100%
85%
Thursday
Mar 7

Rain
58 °F
44 °F
100%
69%
Friday
Mar 8

Clear
62 °F
40 °F
0%
33%
Saturday
Mar 9

Clouds
67 °F
43 °F
0%
38%
Sunday
Mar 10

Clouds
64 °F
51 °F
4%
55%

Temperature 8-14 Day Outlook



Precipitation 8-14 Day Outlook






About Us
Contact Us
Site Map
Search Site
Advertise With Us
   
www.DiscoverLanier.com
THE LAKE LANIER WEBSITE

Copyright 2024, Lakes Online
Privacy    |    Legal